Tracking 32139 objects as of 17-Nov-2025
HD Live streaming from Space Station
objects crossing your sky now

GEESAT 4-06

Track GEESAT 4-06 now!
10-day predictions
GEESAT 4-06 is classified as:


NORAD ID: 65124
Int'l Code: 2025-170F
Perigee: 601.8 km
Apogee: 626.9 km
Inclination: 50.0 °
Period: 96.8 minutes
Semi major axis: 6985 km
RCS: Unknown
Launch date: August 8, 2025
Source: People's Republic of China (PRC)
Launch site: Yellow Sea Launch Area, China (YSLA)
Your satellite tracking list
Your tracking list is empty




NASA's NSSDC Master Catalog

Two Line Element Set (TLE):
1 65124U 25170F   25320.78586896  .00005198  00000-0  59777-3 0  9993
2 65124  49.9830  78.7853 0017980 305.1835  54.7420 14.87031435 14891
Source of the keplerian elements: AFSPC